Погода в Жегалове

Россия / Республика Мордовия     54°42′48″N   43°25′02″E
темп.,
°C
ветер,
м/с
пор.,
м/с
влажн.,
%
обл.,
%
осадки,
мм/ч
давл.,
гПа
погр.,
м
30 ноября, вт
вт3000:00+6юв61596100 0.1 996596
03:00+8ююв92190100 4.9 9891415
06:00+9ю102089100 1.6 9841354
09:00+10ююз7148198 2.3 9831115
12:00+8юз71469100 0.3 9841557
15:00+5юз8166169 0.3 9851658
18:00+3ююз91966100 0.1 9861789
21:00+2юз9197399 0.1 9861790
1 декабря, ср
ср100:00+1юз81670100 0.1 9881382
03:000юз7137292 0.1 9901074
06:00−1юз51075100 0.0 991837
09:00−1юз4774100 0.0 991713
12:00−1з5865100 0.0 990824
15:00−1зюз496534 0.0 9911083
18:00−2зюз596998 0.0 992961
21:00−2зюз5107075 0.0 9941069
2 декабря, чт
чт200:00−2зюз51068100 0.0 9951169
03:00−2зюз51071100 0.1 9971200
06:00−4з597195 0.1 9991002
09:00−5з5107032 0.1 1002732
12:00−4зюз5861100 0.0 1004742
15:00−3юз4860100 0.0 1004708
18:00−3ююз41061100 0.0 1004645
21:00−3ю41291100 0.3 1003588
3 декабря, пт
пт300:00−2ююз41294100 0.2 1002594
03:000юз41298100 0.9 1003619
06:00+1юз51298100 0.1 1004716
09:00+1юз51192100 0.3 1006711
12:00+2юз5128681 0.0 1007777
15:00+2юз3892100 0.0 1008291
18:00+1ю41095100 0.0 1009295
21:00+3ю51495100 0.0 1007727
4 декабря, сб
сб400:00+4ю71693100 0.0 1005794
03:00+5ю71693100 0.0 1004873
06:00+5ююз81683100 0.1 10021073
09:00+5юз71392100 1.1 10031162
12:00+1з5981100 0.9 1008736
15:000з4876100 0.9 1011695
18:00−1з3780100 0.0 1014456
21:00−2з1482100 0.0 1015247